{"data":{"norad_id":85006,"intl_designator":"","name":"UNKNOWN","alt_names":[],"object_type":"UNKNOWN","status":"UNKNOWN","operator":null,"country":null,"launch_date":null,"launch_site_code":null,"launch_vehicle":null,"mission":null,"orbit_class":"UNKNOWN","rcs_meters":null,"size_class":null,"mass_kg":null,"dimensions":null,"purposes":[],"wikipedia_slug":null,"has_3d_model":false,"image_url":null,"decayed_at":null,"tle_current":{"epoch":"2026-09-19T09:16:24.347424Z","epoch_age_seconds":117326,"freshness":"FRESH","line1":"1 85006U          26262.38639291  .00001511  00000+0  75776-3 0  9990","line2":"2 85006  98.8393 313.8205 0007875  68.0335 292.1676 14.18109233 16423","mean_motion":14.18109233,"eccentricity":0.0007875,"inclination_deg":98.8393,"raan_deg":313.8205,"arg_perigee_deg":68.0335,"mean_anomaly_deg":292.1676,"bstar":0.00075776,"rev_number":1642,"period_min":101.54365873168,"perigee_km":826.07652907577,"apogee_km":837.43210790239,"semimajor_km":7209.8913184891,"source":"CELESTRAK","updated_at":"2026-09-20T09:00:32.444483Z"}}}